Regional Weather Roundup
Issued by NWS Charleston, SC

Current Version | Previous Version | Graphics & Text | Print | Product List | Glossary On
Versions: 1 2 3 4 5 6 7 8 9 10 11 12 13 14 15 16 17 18 19 20 21 22 23 24 25 26 27 28 29 30 31 32 33 34 35 36 37 38 39 40 41 42 43 44 45 46 47 48 49 50
000
ASUS42 KCHS 250928
RWRCHS

REGIONAL WEATHER ROUNDUP
NATIONAL WEATHER SERVICE CHARLESTON SC
500 AM EDT MON JUL 25 2016

NOTE: "FAIR" INDICATES FEW OR NO CLOUDS BELOW 12,000 FEET WITH NO
SIGNIFICANT WEATHER AND/OR OBSTRUCTIONS TO VISIBILITY.

NOT ALL STATIONS ARE QUALITY CONTROLLED. USE DATA WITH CAUTION...
ESPECIALLY DEWPOINT OBSERVATIONS.

SCZ027-030-031-034>040-042>050-251000-
...SOUTHEAST SOUTH CAROLINA...

CITY           SKY/WX    TMP DP  RH WIND       PRES   REMARKS
N CHARLESTON   PTCLDY    78  74  87 S5        30.03S
WATERFRONT PRK   N/A     83  77  81 VRB3      30.01F HX  92
MOUNT PLEASANT FAIR      77  75  94 CALM      30.04S
JOHNS ISLAND   FAIR      81  77  89 CALM      30.04S
PINOPOLIS        N/A     79  75  89 CALM      29.96F
MONCKS CORNER  FAIR      73  72  94 CALM      30.04S
SUMMERVILLE    NOT AVBL
BEAUFORT MCAS  CLEAR     79  74  84 W3        30.03S
BEAUFORT ARPT  FAIR      81  73  78 SW3       30.03S
HILTON HEAD IS CLEAR     82  73  74 CALM      30.04S
WALTERBORO     SUNNY     77  77 100 CALM      30.05R
ALLENDALE      FAIR      77  73  88 CALM      30.04R

...SOUTHERN MIDLANDS AND PEE DEE...

CITY           SKY/WX    TMP DP  RH WIND       PRES   REMARKS
GEORGETOWN     FAIR      73  72  94 CALM      30.06R
KINGSTREE      FAIR      73  72  94 CALM      30.05R
ORANGEBURG     PTCLDY    77  74  90 S3        30.04S
BARNWELL       NOT AVBL
AIKEN          FAIR      77  70  78 S6        30.07S
MANNING        FAIR      77  72  83 CALM      30.05R
COLUMBIA       MOCLDY    81  72  74 SW6       30.03R
SUMTER         PTCLDY    77  74  88 S5        30.01R
FLORENCE       PTCLDY    78  75  90 S5        30.04R
MYRTLE BEACH   PTCLDY    81  70  69 SW5       30.07R
N MYRTLE BEACH CLEAR     81  77  88 SW7       30.04S

$$

GAZ063-065-086>088-099>101-113>116-118-119-134>141-150-251000-
...SOUTHEAST GEORGIA...

CITY           SKY/WX    TMP DP  RH WIND       PRES   REMARKS
SAVANNAH ARPT  CLEAR     77  72  84 CALM      30.03F
HUNTER AAF     CLEAR     76  76 100 CALM      30.01S
FORT STEWART   CLEAR     73  71  94 CALM      30.01S
STATESBORO     CLEAR     77  73  88 CALM      30.04R
SYLVANIA       NOT AVBL
CLAXTON        FAIR      73  73 100 CALM      30.03R

...CSRA...CENTRAL AND FAR SOUTHEAST GEORGIA...

CITY           SKY/WX    TMP DP  RH WIND       PRES   REMARKS
THOMSON        NOT AVBL
AUGUSTA-BUSH   MOCLDY    76  72  87 E5        30.02R
AUGUSTA-DANIEL CLOUDY    81  70  69 S8        30.04R
SWAINSBORO     FAIR      75  72  88 SE3       30.05R
VIDALIA        CLEAR     75  70  83 S3        30.04R
EASTMAN        FAIR      74  74 100 CALM      30.06R
HAZLEHURST     FAIR      76  74  91 CALM      30.02R
ALMA           CLEAR     73  71  93 CALM      30.02F
WAYCROSS       CLEAR     75  74  96 S3        30.03R
JESUP          FAIR      72  72 100 CALM      30.03S
BAXLEY         FAIR      73  73 100 CALM      30.02S
BRUNSWICK      CLEAR     79  75  89 S3        30.04R
SAINT SIMONS   CLEAR     81  73  76 SW8       30.02F

$$

SCZ027-028-034-036>038-045-046-048>050-GAZ119-141-251000-
...LAKE AND SUPPLEMENTAL COASTAL OBSERVATIONS...

STATION/POSITION TIME  TEMP    WIND        PRES    WAVE   SWELL
                       AIR SEA DIR/SP/G            HT/PER HT/PER/DIR
                 (UTC) (F)     (DEG/KT/KT) (MB)    (FT/S) (FT/S/D)
WINYAH BAY       0800   80     250/  2     1017.0S
LAKE MURRAY      0900   83     210/  9/ 12 1016.3R
ACE BASIN NERRS  0800   79        CALM     1017.0S
FORT PULASKI     0900   82 88  240/  3/  5 1017.2F
SAPELO ISLAND    0900   81     200/  8     1017.0S

$$

ANZ835-935-AMZ111-154-330-350-352-354-370-450-454-472-251000-
...C-MAN AND BUOY OBSERVATIONS...

STATION/POSITION TIME  TEMP    WIND        PRES    WAVE   SWELL
                       AIR SEA DIR/SP/G            HT/PER HT/PER/DIR
                 (UTC) (F)     (DEG/KT/KT) (MB)    (FT/S) (FT/S/D)
BUOY 41004       0850   84 86  190/ 12/ 14 1016.8F   3/ 9   2/140/ 9
BUOY 41008       0850   85 86  190/ 12/ 16 1016.6F   3/ 4   2/100/ 9
FOLLY BEACH CMAN 0900   84     210/ 12/ 14 1017.1F
CAPERS NEARSHORE 0908   83 82  220/ 12/ 14 1017.1F
FRIPP NEARSHORE  0908   85 86  210/ 12/ 16 1016.4R


STATION/POSITION TIME  TEMP    WIND        PRES    WAVE   SWELL
                       AIR SEA DIR/SP/G            HT/PER HT/PER/DIR
                 (UTC) (F)     (DEG/KT/KT) (MB)    (FT/S) (FT/S/D)
5E ST. MARYS GA  0901      86                N/A     2/ 9
FRYING PAN BUOY  0900   84 85  200/ 12/ 14 1017.3R
BUOY 41025       0850   84 85  240/ 14/ 16 1017.3S   3/ 4   2/100/ 8
CAPE LOOKOUT NC  0900   83     230/  8/ 10 1017.3R
BUOY 41002       0850   83 84  200/  6/  8 1018.9R   2/ 9   2/ 90/ 9
BUOY 41010       0820   82 86  130/  8/ 10 1017.8F
ST AUGUSTINE FL  0900   76 85  220/  2/  3 1018.1F


$$



USA.gov is the U.S. government's official web portal to all federal, state and local government web resources and services.